Location: Unspecified
(43.8044°N, 11.0278°E)
Time: 08:49:40
(UTC+02:00)

Cosmos 1674 - Visible Passes

Search period start: 30 May 2016 00:00
Search period end: 09 June 2016 00:00
Orbit: 500 x 526 km, 82.5° (Epoch: 29 May)

Date Brightness Start Highest point End Pass type
(mag) Time Alt. Az. Time Alt. Az. Time Alt. Az.
30 May 3.0 01:50:14 63° N 01:50:14 63° N 01:53:28 10° N visible
31 May 3.1 01:34:34 59° NNE 01:34:34 59° NNE 01:37:44 10° N visible
01 Jun 3.3 01:18:54 50° NE 01:18:54 50° NE 01:21:57 10° NNE visible
02 Jun 3.6 01:03:12 42° ENE 01:03:12 42° ENE 01:06:10 10° NNE visible
02 Jun 5.1 02:38:09 12° WNW 02:38:30 12° WNW 02:40:03 10° NW visible
03 Jun 3.8 00:47:29 34° ENE 00:47:29 34° ENE 00:50:20 10° NNE visible
03 Jun 4.9 02:22:27 15° WNW 02:22:40 15° WNW 02:24:52 10° NW visible
04 Jun 4.1 00:31:46 28° ENE 00:31:46 28° ENE 00:34:28 10° NNE visible
04 Jun 4.7 02:06:44 18° WNW 02:06:51 18° WNW 02:09:30 10° NNW visible
05 Jun 4.3 00:16:02 24° ENE 00:16:02 24° ENE 00:18:32 10° NE visible
05 Jun 4.5 01:50:59 22° WNW 01:51:03 22° WNW 01:54:01 10° NNW visible
06 Jun 4.5 00:00:17 20° ENE 00:00:17 20° ENE 00:02:34 10° NE visible
06 Jun 4.2 01:35:14 26° WNW 01:35:15 26° WNW 01:38:29 10° NNW visible
06 Jun 4.7 23:44:31 16° ENE 23:44:31 16° ENE 23:46:31 10° NE visible
07 Jun 3.9 01:19:28 32° WNW 01:19:28 32° WNW 01:22:53 10° N visible
07 Jun 4.9 23:28:44 13° E 23:28:44 13° E 23:30:18 10° NE visible
08 Jun 3.6 01:03:41 40° WNW 01:03:41 40° WNW 01:07:16 10° N visible
08 Jun 5.1 23:12:57 11° E 23:12:57 11° E 23:13:46 10° ENE visible
